Location: Buchberg
(46.9333°N, 15.8500°E)
Time: 19:51:13
(UTC+00:00)

COSMOS 2406 - Pass Details

Date: 14 July 2020
Orbit: 844 x 863 km, 71.0° (Epoch: 05 August)

Event Time Altitude Azimuth Distance (km) Brightness Sun altitude
Exits shadow 00:49:37 29° 205° (SSW) 1,541 4.0 -17.3°
Maximum altitude 00:52:44 89° 112° (ESE) 870 3.2 -17.1°
Drops below altitude 10° 00:58:32 10° 27° (NNE) 2,510 7.0 -16.6°
Sets 01:01:00 0° 28° (NNE) 3,449 8.2 -16.4°
